TimeCST,TemperatureF,Dew PointF,Humidity,Sea Level PressureIn,VisibilityMPH,Wind Direction,Wind SpeedMPH,Gust SpeedMPH,PrecipitationIn,Events,Conditions,WindDirDegrees,DateUTC
12:52 AM,41.0,30.0,65,30.08,10.0,East,4.6,-,N/A,,Clear,80,2013-02-06 06:52:00
1:52 AM,41.0,30.0,65,30.07,10.0,East,8.1,-,N/A,,Clear,90,2013-02-06 07:52:00
2:52 AM,37.0,28.9,73,30.08,10.0,ESE,6.9,-,N/A,,Clear,110,2013-02-06 08:52:00
3:52 AM,37.9,28.9,70,30.07,10.0,ESE,8.1,-,N/A,,Clear,110,2013-02-06 09:52:00
4:52 AM,37.9,28.9,70,30.06,10.0,East,9.2,-,N/A,,Clear,100,2013-02-06 10:52:00
5:52 AM,37.0,28.9,73,30.08,10.0,ESE,9.2,-,N/A,,Clear,110,2013-02-06 11:52:00
6:52 AM,35.1,28.0,76,30.09,10.0,East,6.9,-,N/A,,Clear,100,2013-02-06 12:52:00
7:52 AM,36.0,28.9,76,30.09,10.0,East,8.1,-,N/A,,Clear,100,2013-02-06 13:52:00
8:52 AM,42.1,30.9,65,30.08,10.0,ESE,10.4,-,N/A,,Clear,120,2013-02-06 14:52:00
9:52 AM,48.0,33.1,56,30.07,10.0,SE,11.5,18.4,N/A,,Clear,140,2013-02-06 15:52:00
10:52 AM,54.0,35.1,49,30.05,10.0,SSE,12.7,-,N/A,,Clear,150,2013-02-06 16:52:00
11:52 AM,60.1,39.0,46,30.02,10.0,SSE,12.7,-,N/A,,Clear,160,2013-02-06 17:52:00
12:52 PM,62.1,42.1,48,29.98,10.0,South,15.0,21.9,N/A,,Scattered Clouds,170,2013-02-06 18:52:00
1:52 PM,66.0,44.1,45,29.93,10.0,South,17.3,-,N/A,,Partly Cloudy,170,2013-02-06 19:52:00
2:52 PM,64.9,46.0,50,29.91,10.0,South,19.6,25.3,N/A,,Partly Cloudy,190,2013-02-06 20:52:00
3:52 PM,64.0,45.0,50,29.90,10.0,SSE,12.7,-,N/A,,Scattered Clouds,160,2013-02-06 21:52:00
4:52 PM,63.0,45.0,52,29.89,10.0,South,15.0,-,N/A,,Overcast,170,2013-02-06 22:52:00
5:52 PM,60.1,44.1,55,29.89,10.0,SSE,12.7,-,N/A,,Mostly Cloudy,160,2013-02-06 23:52:00
6:52 PM,60.1,43.0,53,29.90,10.0,SSE,13.8,-,N/A,,Overcast,160,2013-02-07 00:52:00
7:52 PM,57.9,39.9,51,29.91,10.0,South,10.4,-,N/A,,Overcast,170,2013-02-07 01:52:00
8:52 PM,55.9,41.0,57,29.91,10.0,SSE,11.5,-,N/A,,Overcast,160,2013-02-07 02:52:00
9:52 PM,54.0,41.0,62,29.91,10.0,SSE,12.7,-,N/A,,Overcast,160,2013-02-07 03:52:00
10:52 PM,53.1,41.0,64,29.91,10.0,SSE,13.8,-,N/A,,Overcast,150,2013-02-07 04:52:00
11:52 PM,51.8,39.2,62,29.91,10.0,SSE,13.8,-,N/A,,Overcast,150,2013-02-07 05:52:00